Home   Weather   San Miguel   Past weeks

Flag for El Salvador Past Weather in San Miguel, El Salvador — Yesterday and Last 2 Weeks

Now
73 °F

Clear.


Feels Like: 70 °F
Forecast: 69 / 93 °F
Wind: 2 mph from North

Location: El Salvador Intl. Airport / Comalapa

Current Time: Dec 7, 2016 at 4:56:56 am

Latest Report: Dec 7, 2016 at 3:50 am


Visibility: 10 mi

Pressure: 29.83 "Hg

Humidity: 94%

Dew Point: 72 °F

Location of San MiguelLocation

Past Weather in San Miguel — Graph

°F

San Miguel Temperature Yesterday

Maximum temperature yesterday: 90 °F (at 10:50 am)
Minimum temperature yesterday: 73 °F (at 3:50 am)
Average temperature yesterday: 80 °F

High & Low Weather Summary for the Past Weeks

 TemperatureHumidityPressure
High93 °F (Nov 25, 12:50 pm)100% (Nov 23, 3:50 am)30.01 "Hg (Nov 23, 3:50 am)
Low63 °F (Nov 23, 3:50 am)41% (Nov 22, 2:50 pm)29.74 "Hg (Nov 28, 2:50 pm)
Average80 °F78%29.84 "Hg
* Reported Nov 22 2:50 am — Dec 7 2:50 am, San Miguel, Weather by CustomWeather, © 2016

Note: Actual official high and low records may vary slightly from our data, if they occured in-between our weather recording intervals... More about our weather records

Advertising

San Miguel Weather History for the Previous 24 Hours

Scroll right to see more
 ConditionsComfort  
Time TempWeatherWind HumidityBarometerVisibility
2:50 am
Wed, Dec 7
75 °FClear.1 mph89%29.83 "Hg10 mi
11:50 pm
Tue, Dec 6
77 °FWarm.2 mph94%29.89 "HgN/A
10:50 pm77 °FClear.1 mph100%29.89 "Hg4 mi
9:50 pm79 °FClear.3 mph94%29.92 "Hg10 mi
8:50 pm79 °FPassing clouds.5 mph94%29.89 "HgN/A
7:50 pm77 °FClear.2 mph94%29.86 "Hg6 mi
6:50 pm79 °FPassing clouds.2 mph94%29.86 "HgN/A
5:50 pm79 °FPassing clouds.2 mph94%29.83 "HgN/A
4:50 pm82 °FPartly sunny.5 mph84%29.83 "Hg6 mi
3:50 pm84 °FScattered clouds.6 mph79%29.83 "Hg6 mi
2:50 pm86 °FPassing clouds.6 mph70%29.80 "Hg6 mi
1:50 pm86 °FPassing clouds.7 mph70%29.80 "HgN/A
12:50 pm88 °FPassing clouds.7 mph70%29.83 "HgN/A
11:50 am90 °FScattered clouds.5 mph63%29.86 "HgN/A
10:50 am90 °FPassing clouds.2 mph63%29.89 "HgN/A
9:50 am86 °FPassing clouds.3 mph70%29.92 "Hg6 mi
8:50 am84 °FPassing clouds.2 mph74%29.95 "Hg6 mi
7:50 am79 °FClear.2 mph89%29.92 "Hg5 mi
6:50 am73 °FClear.3 mph100%29.92 "Hg4 mi
5:50 am73 °FRain. Overcast.3 mph94%29.89 "Hg6 mi
4:50 am73 °FRain. Overcast.5 mph94%29.89 "Hg5 mi
Weather by CustomWeather, © 2016

See weather overviewHow to use our weather pages